Sussex, NJ

3:25 PM EST on January 23, 2017 (GMT -0500)
Sussex

Weather History for KFWN - February, 2014

Change the Weather History Date:

Tuesday, February 25, 2014

  Actual Average Record
Temperature  
Mean Temperature 19 °F -  
Max Temperature 28 °F 41 °F 71 °F (1985)
Min Temperature 10 °F 22 °F -3 °F (1964)
Degree Days  
Heating Degree Days 46    
Moisture  
Dew Point 9 °F    
Average Humidity 65    
Maximum Humidity 84    
Minimum Humidity 44    
Precipitation  
Precipitation 0.00 in - - ()
Sea Level Pressure  
Sea Level Pressure 30.01 in    
Wind  
Wind Speed 2 mph (WSW)    
Max Wind Speed 12 mph    
Max Gust Speed 21 mph    
Visibility 10 miles    
Events      
Averages and records for this station are not official NWS values.
T = Trace of Precipitation, MM = Missing Value Source: NWS Daily Summary

Daily Weather History Graph

Daily Weather History Graph

Search for Another Location

Airport or City:

Trip Planner

Search our weather history database for the weather conditions in past years. The results will help you decide how hot, cold, wet, or windy it might be!

Date:

Astronomy

Feb. 25, 2014 Rise Set
Actual Time 6:38 AM EST 5:44 PM EST
Civil Twilight 6:11 AM EST 6:12 PM EST
Nautical Twilight 5:39 AM EST 6:44 PM EST
Astronomical Twilight 5:07 AM EST 7:16 PM EST
Moon 3:33 AM EST (2/25) 1:46 PM EST (2/25)
Length of Visible Light 12h 01m
Length of Day
11h 05m
Waning Crescent, 18% of the Moon is Illuminated
Feb 25
Waning Crescent
Mar 1
New
Mar 8
First Quarter
Mar 16
Full
Mar 23
Last Quarter

Hourly Weather History & Observations

Time (EST) Temp. Windchill Dew Point Humidity Pressure Visibility Wind Dir Wind Speed Gust Speed Precip Events Conditions
12:53 AM 18.0 °F - 6.1 °F 60% 30.07 in 10.0 mi Calm Calm - N/A   Clear
1:53 AM 16.0 °F - 6.1 °F 65% 30.07 in 10.0 mi Calm Calm - N/A   Partly Cloudy
2:53 AM 15.1 °F - 7.0 °F 70% 30.05 in 10.0 mi Calm Calm - N/A   Scattered Clouds
3:53 AM 10.9 °F - 7.0 °F 84% 30.06 in 10.0 mi Calm Calm - N/A   Clear
4:53 AM 10.9 °F - 6.1 °F 81% 30.05 in 10.0 mi Calm Calm - N/A   Scattered Clouds
5:53 AM 10.0 °F - 6.1 °F 84% 30.05 in 10.0 mi Calm Calm - N/A   Clear
6:53 AM 10.0 °F - 6.1 °F 84% 30.04 in 10.0 mi Calm Calm - N/A   Partly Cloudy
7:53 AM 12.0 °F 5.9 °F 7.0 °F 80% 30.06 in 10.0 mi WSW 3.5 mph - N/A   Overcast
8:53 AM 17.1 °F - 10.0 °F 74% 30.05 in 9.0 mi Calm Calm - 0.00 in   Overcast
9:53 AM 21.0 °F 14.6 °F 12.9 °F 71% 30.04 in 10.0 mi SSW 4.6 mph - 0.00 in   Overcast
10:53 AM 25.0 °F 14.2 °F 12.0 °F 58% 30.01 in 10.0 mi West 11.5 mph 18.4 mph 0.00 in   Scattered Clouds
11:53 AM 26.1 °F 17.6 °F 14.0 °F 60% 29.99 in 10.0 mi SW 8.1 mph 18.4 mph 0.00 in   Overcast
12:53 PM 28.0 °F 21.7 °F 16.0 °F 61% 29.96 in 9.0 mi Variable 5.8 mph - 0.00 in   Overcast
1:53 PM 28.0 °F 18.1 °F 12.9 °F 53% 29.94 in 10.0 mi West 11.5 mph 18.4 mph 0.00 in   Overcast
2:53 PM 28.9 °F 19.8 °F 10.0 °F 45% 29.93 in 10.0 mi WSW 10.4 mph 17.3 mph 0.00 in   Overcast
3:53 PM 28.0 °F 18.6 °F 12.0 °F 51% 29.94 in 10.0 mi West 10.4 mph 20.7 mph 0.00 in   Overcast
4:53 PM 27.0 °F 17.3 °F 12.0 °F 53% 29.94 in 10.0 mi West 10.4 mph 16.1 mph 0.00 in   Mostly Cloudy
5:53 PM 26.1 °F 18.4 °F 7.0 °F 44% 29.97 in 10.0 mi West 6.9 mph - N/A   Partly Cloudy
6:53 PM 25.0 °F - 6.1 °F 45% 29.99 in 10.0 mi Calm Calm - N/A   Clear
7:53 PM 23.0 °F - 6.1 °F 48% 30.00 in 10.0 mi Calm Calm - N/A   Clear
8:53 PM 19.9 °F - 6.1 °F 55% 30.00 in 10.0 mi Calm Calm - N/A   Clear
9:53 PM 16.0 °F - 7.0 °F 68% 29.99 in 10.0 mi Calm Calm - N/A   Clear
10:53 PM 14.0 °F - 7.0 °F 74% 29.98 in 10.0 mi Calm Calm - N/A   Clear
11:53 PM 10.9 °F 4.7 °F 7.0 °F 84% 29.96 in 10.0 mi WSW 3.5 mph - N/A   Clear